This is the latest recevied weather packets stored in our database for station/object N0NPO. If no packets are shown the sender has not sent any weather packets the latest 10 day(s).
| Time | Temp. | Humidity | Pressure | Rain* | Wind** | Luminosity | Snow |
|---|---|---|---|---|---|---|---|
| 1778180788 | 16.11° C | 1% | 1014.2 hPa | 0 mm | - | 674 W/m² | - |
| 1778180487 | 14.44° C | 1% | 1014.4 hPa | 0 mm | - | 724 W/m² | - |
| 1778180185 | 15.56° C | 1% | 1014.6 hPa | 0 mm | - | 711 W/m² | - |
| 1778179881 | 15° C | 1% | 1014.4 hPa | 0 mm | - | 711 W/m² | - |
| 1778179579 | 15° C | 1% | 1014.5 hPa | 0 mm | - | 727 W/m² | - |
| 1778179277 | 15° C | 1% | 1014.6 hPa | 0 mm | - | 721 W/m² | - |
| 1778178973 | 15.56° C | 1% | 1014.8 hPa | 0 mm | - | 717 W/m² | - |
| 1778178670 | 14.44° C | 1% | 1014.5 hPa | 0 mm | - | 650 W/m² | - |
| 1778178366 | 14.44° C | 1% | 1014.8 hPa | 0 mm | - | 661 W/m² | - |
| 1778178062 | 15° C | 1% | 1014.5 hPa | 0 mm | - | 708 W/m² | - |
| 1778177759 | 15° C | 1% | 1014.9 hPa | 0 mm | - | 702 W/m² | - |
| 1778177455 | 15° C | 1% | 1014.9 hPa | 0 mm | - | 710 W/m² | - |
| 1778177152 | 15.56° C | 1% | 1014.8 hPa | 0 mm | - | 729 W/m² | - |
| 1778176849 | 14.44° C | 1% | 1014.9 hPa | 0 mm | - | 741 W/m² | - |
| 1778176545 | 15° C | 1% | 1014.9 hPa | 0 mm | - | 668 W/m² | - |
| 1778176243 | 15° C | 1% | 1014.9 hPa | 0 mm | - | 604 W/m² | - |
| 1778175939 | 14.44° C | 1% | 1014.6 hPa | 0 mm | - | 750 W/m² | - |
| 1778175637 | 15.56° C | 1% | 1014.8 hPa | 0 mm | - | 744 W/m² | - |
| 1778175334 | 15° C | 1% | 1014.9 hPa | 0 mm | - | 732 W/m² | - |
| 1778175031 | 15° C | 1% | 1015 hPa | 0 mm | - | 719 W/m² | - |
| 1778174727 | 13.89° C | 1% | 1014.9 hPa | 0 mm | - | 673 W/m² | - |
| 1778174424 | 13.89° C | 1% | 1014.9 hPa | 0 mm | - | 642 W/m² | - |
| 1778174119 | 15° C | 1% | 1015.2 hPa | 0 mm | - | 667 W/m² | - |
| 1778173817 | 14.44° C | 1% | 1015 hPa | 0 mm | - | 778 W/m² | - |
| 1778173514 | 13.89° C | 1% | 1015 hPa | 0 mm | - | 772 W/m² | - |
* Rain latest hour (hover to see other rain measurements)
** Current wind speed in m/s (hover to see current wind gust speed)